Powrót do katalogu

COSMOS 2499 DEB

LostPO
NORAD 55721·DEBRIS·🇷🇺 Russia

Wystrzelony May 23, 2014 z Plesetsk Cosmodrome

Loading…

Następne Przeloty (najbliższe 24 godziny)

TLE

NieaktualneSource: Space-Track

Epoka: May 20, 2023, 16:28 UTC

1 55721U 14028AH  23140.68657850  .00000260  00000-0  89711-3 0  9997
2 55721  82.9446 296.2418 0252421 120.5164 242.1121 12.83525282 15841

Śledź COSMOS 2499 DEB w czasie rzeczywistym z AllMySat

Download on the App Store